Weather History for Oshkosh, WI

Change the Weather History Date:

Sunday, January 26, 2014

  Actual Average Record
Temperature  
Mean Temperature 10 °F -  
Max Temperature 17 °F 24 °F 52 °F (1973)
Min Temperature 3 °F 6 °F -15 °F (1963)
Degree Days  
Heating Degree Days 55    
Moisture  
Dew Point 1 °F    
Average Humidity 74    
Maximum Humidity 85    
Minimum Humidity 60    
Precipitation  
Precipitation 0.01 in - - ()
Sea Level Pressure  
Sea Level Pressure 29.50 in    
Wind  
Wind Speed 8 mph (SSW)    
Max Wind Speed 25 mph    
Max Gust Speed 33 mph    
Visibility 3 miles    
Events Snow    
Averages and records for this station are not official NWS values.
T = Trace of Precipitation, MM = Missing Value Source: NWS Daily Summary

Daily Weather History Graph

Daily Weather History Graph

Search for Another Location

Airport:

Trip Planner

Search our weather history database for the weather conditions in past years. The results will help you decide how hot, cold, wet, or windy it might be!

Date:

Astronomy

Jan. 26, 2014 Rise Set
Actual Time 7:17 AM CST 4:56 PM CST
Civil Twilight 6:46 AM CST 5:27 PM CST
Nautical Twilight 6:11 AM CST 6:02 PM CST
Astronomical Twilight 5:37 AM CST 6:36 PM CST
Moon 2:55 AM CST (1/26) 12:44 PM CST (1/26)
Length of Visible Light 10h 41m
Length of Day
9h 38m
Waning Crescent, 23% of the Moon is Illuminated
Jan 26
Waning Crescent
Jan 30
New
Feb 6
First Quarter
Feb 14
Full
Feb 22
Last Quarter

Hourly Weather History & Observations

Time (CST) Temp. Windchill Dew Point Humidity Pressure Visibility Wind Dir Wind Speed Gust Speed Precip Events Conditions
12:53 AM 3.0 °F -6.4 °F -8.0 °F 60% 29.71 in 10.0 mi South 4.6 mph - N/A   Mostly Cloudy
1:53 AM 3.9 °F -8.2 °F -7.1 °F 60% 29.71 in 10.0 mi SSW 6.9 mph - N/A   Overcast
2:53 AM 3.9 °F -10.4 °F -4.0 °F 70% 29.69 in 3.0 mi South 9.2 mph - 0.00 in Snow Light Snow
3:01 AM 3.9 °F -9.4 °F -2.9 °F 73% 29.60 in 2.5 mi South 8.1 mph - 0.00 in Snow Light Snow
3:20 AM 3.9 °F -8.2 °F -2.0 °F 76% 29.59 in 1.8 mi South 6.9 mph - 0.00 in Snow Light Snow
3:30 AM 3.9 °F -9.4 °F -2.0 °F 76% 29.58 in 2.5 mi South 8.1 mph - 0.00 in Snow Light Snow
3:46 AM 3.9 °F -6.9 °F -2.0 °F 76% 29.57 in 1.0 mi South 5.8 mph - 0.00 in Snow Light Snow
3:53 AM 3.9 °F -5.3 °F -2.0 °F 76% 29.66 in 1.0 mi South 4.6 mph - 0.00 in Snow Light Snow
4:42 AM 3.9 °F -6.9 °F -2.0 °F 76% 29.52 in 2.0 mi ESE 5.8 mph - 0.01 in Snow Light Snow
4:53 AM 3.9 °F -6.9 °F -2.0 °F 76% 29.61 in 1.8 mi ESE 5.8 mph - 0.01 in Snow Light Snow
5:01 AM 3.9 °F -5.3 °F -2.0 °F 76% 29.51 in 2.0 mi ESE 4.6 mph - 0.00 in Snow Light Snow
5:12 AM 3.9 °F -5.3 °F -0.9 °F 80% 29.51 in 2.5 mi ESE 4.6 mph - 0.00 in Snow Light Snow
5:41 AM 3.9 °F -8.2 °F -2.0 °F 76% 29.48 in 1.8 mi ESE 6.9 mph - 0.00 in Snow Light Snow
5:53 AM 3.9 °F -8.2 °F -2.0 °F 76% 29.58 in 2.5 mi East 6.9 mph - 0.00 in Snow Light Snow
6:10 AM 3.9 °F -8.2 °F -0.9 °F 80% 29.47 in 2.5 mi East 6.9 mph - 0.00 in Snow Light Snow
6:19 AM 3.9 °F -9.4 °F -2.0 °F 76% 29.47 in 4.0 mi East 8.1 mph - 0.00 in Snow Light Snow
6:23 AM 3.9 °F -8.2 °F -2.0 °F 76% 29.47 in 2.5 mi ESE 6.9 mph - 0.00 in Snow Light Snow
6:32 AM 3.9 °F -10.4 °F -2.0 °F 76% 29.44 in 1.2 mi ESE 9.2 mph - 0.00 in Snow Light Snow
6:42 AM 3.9 °F -8.2 °F -0.9 °F 80% 29.45 in 3.0 mi ESE 6.9 mph - 0.00 in Snow Light Snow
6:50 AM 3.2 °F -6.2 °F -0.4 °F 85% 29.46 in 2.0 mi ESE 4.6 mph - 0.00 in Snow Light Snow
6:53 AM 3.9 °F -5.3 °F -0.9 °F 80% 29.56 in 2.0 mi ESE 4.6 mph - 0.00 in Snow Light Snow
7:05 AM 3.9 °F -5.3 °F -0.9 °F 80% 29.46 in 2.5 mi ESE 4.6 mph - 0.00 in Snow Light Snow
7:19 AM 3.9 °F -6.9 °F -0.9 °F 80% 29.44 in 3.0 mi SE 5.8 mph - 0.00 in Snow Light Snow
7:41 AM 3.9 °F -6.9 °F -0.9 °F 80% 29.43 in 2.5 mi SSE 5.8 mph - 0.00 in Snow Light Snow
7:50 AM 3.2 °F -6.2 °F -0.4 °F 85% 29.42 in 3.0 mi SSE 4.6 mph - 0.00 in Snow Light Snow
7:53 AM 3.9 °F -6.9 °F -0.9 °F 80% 29.52 in 3.0 mi SSE 5.8 mph - 0.00 in Snow Light Snow
8:08 AM 5.0 °F -5.6 °F -0.9 °F 76% 29.40 in 2.0 mi SE 5.8 mph - 0.00 in Snow Light Snow
8:15 AM 5.0 °F -4.1 °F -0.9 °F 76% 29.40 in 1.2 mi SSE 4.6 mph - 0.00 in Snow Light Snow
8:53 AM 6.1 °F -4.3 °F -0.0 °F 76% 29.48 in 1.8 mi South 5.8 mph - 0.00 in Snow Light Snow
9:19 AM 6.1 °F -2.8 °F 1.0 °F 80% 29.39 in 2.0 mi South 4.6 mph - 0.00 in Snow Light Snow
9:30 AM 6.1 °F -5.6 °F 1.0 °F 80% 29.38 in 1.5 mi South 6.9 mph - 0.00 in Snow Light Snow
9:50 AM 6.8 °F -4.8 °F 1.4 °F 79% 29.38 in 1.8 mi South 6.9 mph - 0.00 in Snow Light Snow
9:53 AM 6.1 °F -6.8 °F 1.0 °F 80% 29.47 in 1.8 mi South 8.1 mph - 0.00 in Snow Light Snow
10:01 AM 7.0 °F -5.7 °F 1.0 °F 77% 29.38 in 2.0 mi South 8.1 mph - 0.00 in Snow Light Snow
10:29 AM 8.1 °F -0.5 °F 3.0 °F 80% 29.38 in 1.2 mi SSW 4.6 mph - 0.00 in Snow Light Snow
10:53 AM 8.1 °F -3.2 °F 3.0 °F 80% 29.42 in 1.2 mi South 6.9 mph - 0.00 in Snow Light Snow
11:07 AM 8.1 °F -5.3 °F 1.9 °F 76% 29.32 in 3.0 mi SSW 9.2 mph - 0.00 in Snow Light Snow
11:27 AM 9.0 °F -3.2 °F 1.9 °F 73% 29.32 in 10.0 mi SW 8.1 mph - 0.00 in   Scattered Clouds
11:46 AM 9.0 °F -4.2 °F 3.0 °F 77% 29.31 in 5.0 mi SW 9.2 mph - 0.00 in Snow Light Snow
11:53 AM 10.0 °F -1.9 °F 3.0 °F 73% 29.40 in 3.0 mi WSW 8.1 mph - 0.00 in Snow Light Snow
12:53 PM 10.9 °F -3.4 °F 3.9 °F 73% 29.39 in 9.0 mi WSW 11.5 mph 17.3 mph 0.00 in   Overcast
1:53 PM 12.9 °F -0.2 °F 6.1 °F 74% 29.39 in 6.0 mi West 10.4 mph - N/A   Haze
2:53 PM 15.1 °F 1.1 °F 7.0 °F 70% 29.41 in 10.0 mi WSW 12.7 mph 18.4 mph 0.00 in   Overcast
3:53 PM 16.0 °F 2.9 °F 8.1 °F 71% 29.44 in 10.0 mi West 11.5 mph - 0.00 in   Overcast
4:13 PM 17.1 °F 3.6 °F 8.1 °F 68% 29.37 in 10.0 mi West 12.7 mph 20.7 mph N/A   Overcast
4:45 PM 16.0 °F 1.1 °F 9.0 °F 74% 29.39 in 1.8 mi WNW 15.0 mph 23.0 mph 0.00 in Snow Light Snow
4:53 PM 16.0 °F -0.4 °F 9.0 °F 74% 29.47 in 0.8 mi WNW 18.4 mph 25.3 mph 0.00 in Snow Light Snow
5:10 PM 15.1 °F 0.5 °F 7.0 °F 70% 29.40 in 1.8 mi WNW 13.8 mph 25.3 mph 0.00 in Snow Light Snow
5:12 PM 16.0 °F 1.1 °F 7.0 °F 68% 29.40 in 3.0 mi WNW 15.0 mph 25.3 mph 0.00 in Snow Light Snow
5:53 PM 15.1 °F 1.1 °F 6.1 °F 68% 29.51 in 8.0 mi WNW 12.7 mph - 0.00 in   Overcast
6:53 PM 12.9 °F -0.9 °F 5.0 °F 71% 29.55 in 5.0 mi NW 11.5 mph - 0.00 in Snow Light Snow
7:00 PM 12.9 °F -1.6 °F 6.1 °F 74% 29.46 in 2.5 mi NW 12.7 mph - 0.00 in Snow Light Snow
7:11 PM 12.9 °F -0.2 °F 6.1 °F 74% 29.47 in 4.0 mi NW 10.4 mph - 0.00 in Snow Light Snow
7:23 PM 12.9 °F -0.2 °F 6.1 °F 74% 29.48 in 1.8 mi NW 10.4 mph - 0.00 in Snow Light Snow
7:53 PM 12.0 °F -5.1 °F 6.1 °F 77% 29.57 in 0.8 mi WNW 17.3 mph 24.2 mph 0.00 in Snow Light Snow
8:04 PM 10.9 °F -5.9 °F 6.1 °F 81% 29.49 in 1.5 mi WNW 16.1 mph 24.2 mph 0.00 in Snow Light Snow
8:31 PM 10.0 °F -9.1 °F 5.0 °F 80% 29.52 in 0.5 mi NW 20.7 mph 27.6 mph 0.00 in Snow Snow
8:47 PM 10.4 °F -7.7 °F 1.4 °F 67% 29.53 in 1.0 mi NW 18.4 mph 29.9 mph 0.00 in Snow Light Snow
8:48 PM 10.0 °F -7.6 °F 1.9 °F 70% 29.62 in 1.2 mi NW 17.3 mph 29.9 mph 0.00 in Snow Light Snow
8:54 PM 10.0 °F -7.1 °F 1.0 °F 67% 29.54 in 2.5 mi NW 16.1 mph 27.6 mph 0.00 in Snow Blowing Snow
9:28 PM 8.1 °F -13.4 °F -0.9 °F 67% 29.58 in 1.5 mi NW 25.3 mph 33.4 mph 0.00 in Snow Light Snow
9:45 PM 8.1 °F -11.2 °F -2.9 °F 61% 29.60 in 3.0 mi NW 19.6 mph 32.2 mph 0.00 in   Overcast
9:53 PM 7.0 °F -13.1 °F -0.9 °F 70% 29.69 in 2.5 mi NW 20.7 mph 28.8 mph 0.00 in Snow Light Snow
10:07 PM 7.0 °F -12.6 °F -2.0 °F 67% 29.62 in 4.0 mi NW 19.6 mph 27.6 mph 0.00 in   Overcast
10:26 PM 7.0 °F -12.6 °F -2.0 °F 67% 29.64 in 2.5 mi NW 19.6 mph 33.4 mph 0.00 in Snow Light Snow
10:53 PM 6.1 °F -13.3 °F -2.0 °F 69% 29.75 in 4.0 mi WNW 18.4 mph 28.8 mph 0.00 in   Overcast
11:53 PM 3.9 °F -15.6 °F -6.0 °F 64% 29.81 in 5.0 mi WNW 17.3 mph 28.8 mph 0.00 in   Partly Cloudy